Location: Bryzozowice
(50.3667°N, 18.9667°E)
Time: 18:58:42
(UTC+00:00)

CSL-04 Rocket - Pass Details

Date: 24 January 2020
Orbit: 806 x 860 km, 99.0° (Epoch: 28 February)

Event Time Altitude Azimuth Distance (km) Brightness Sun altitude
Rises 17:03:59 0° 160° (SSE) 3,398 6.8 -15.9°
Reaches altitude 10° 17:06:20 10° 160° (SSE) 2,474 6.0 -16.3°
Maximum altitude 17:11:50 85° 74° (ENE) 868 3.7 -17.1°
Drops below altitude 10° 17:17:26 10° 346° (NNW) 2,509 6.2 -18.0°
Sets 17:19:50 0° 346° (NNW) 3,451 7.0 -18.4°
